Powrót do katalogu

SL-14 DEB

AktywnyPO
NORAD 45267·DEBRIS·🇷🇺 Russia

Wystrzelony Aug 15, 1991 z Plesetsk Cosmodrome

Loading…

Następne Przeloty (najbliższe 24 godziny)

TLE

ŚwieżeSource: Space-Track

Epoka: Sep 14, 2026, 11:38 UTC

1 45267U 91056D   26257.48516349 -.00000399  00000-0 -11149-2 0  9998
2 45267  82.5624  87.6413 0016134  47.5260 312.7222 13.14143358315956

Śledź SL-14 DEB w czasie rzeczywistym z AllMySat

Download on the App Store